Flag for Indonesia Weather past 2 weeks in Mamuju, West Sulawesi, Indonesia

86 °F

Thunderstorms. Scattered clouds.

Feels Like: 108 °F
Forecast: 81 / 90 °F
Wind: 7 mph from Northwest

Location: Ujung Pandang / Hasanuddin

Current Time: Nov 30, 2015 at 3:26:02 PM

Latest Report: Nov 30, 2015 at 3:00 PM

Visibility: 2 mi

Pressure: N/A

Humidity: 94%

Dew point: 84 °F

Location of MamujuLocation

Historic Weather in Mamuju — Graph


Mamuju temperature yesterday

Maximum temperature yesterday: 91 °F (at 2:00 PM)
Minimum temperature yesterday: 77 °F (at 5:30 AM)
Average temperature yesterday: 82 °F

Past Weeks' High & Low Weather Summary

High95 °F (Nov 23, 1:00 PM)100% (Nov 15, 8:30 PM)29.92 "Hg (Nov 15, 8:30 PM)
Low45 °F (Nov 27, 2:30 PM)47% (Nov 21, 10:30 AM)29.68 "Hg (Nov 20, 3:00 PM)
Average83 °F88%29.79 "Hg
* Reported Nov 15 2:00 PM — Nov 30 2:00 PM, Mamuju, Weather by CustomWeather, © 2015

Note: Actual official high and low records may vary slightly from our data, if they occured in-between our weather recording intervals... More about our weather records


Mamuju weather history for previous 24 hours

Time TempWeatherWind HumidityBarometerVisibility
2:00 PM
Mon, Nov 30
88 °FThunderstorms. Scattered clouds.10 mph84%N/A5 mi
1:30 PM90 °FScattered clouds.12 mph79%29.80 "Hg6 mi
1:00 PM91 °FScattered clouds.10 mph75%29.80 "Hg6 mi
12:30 PM91 °FScattered clouds.12 mph71%29.83 "Hg6 mi
11:30 AM90 °FScattered clouds.9 mph79%29.86 "Hg6 mi
11:00 AM90 °FScattered clouds.12 mph79%29.86 "Hg6 mi
10:30 AM90 °FScattered clouds.7 mph79%29.86 "Hg6 mi
10:00 AM88 °FScattered clouds.7 mph84%29.89 "Hg6 mi
9:00 AM88 °FPassing clouds.5 mph84%29.89 "Hg6 mi
8:30 AM86 °FPassing clouds.2 mph89%29.89 "Hg6 mi
8:00 AM86 °FPassing clouds.3 mph89%29.89 "Hg6 mi
7:00 AM81 °FPassing clouds.3 mph94%29.86 "Hg6 mi
6:30 AM77 °FPassing clouds.3 mph100%29.86 "Hg6 mi
6:00 AM77 °FPassing clouds.1 mph100%29.86 "Hg6 mi
5:30 AM77 °FPassing clouds.1 mph100%29.86 "Hg5 mi
5:00 AM77 °FPassing clouds.3 mph100%29.83 "Hg5 mi
4:30 AM77 °FPassing clouds.2 mph100%29.83 "Hg5 mi
4:00 AM77 °FPassing clouds.3 mph100%29.83 "Hg5 mi
3:30 AM77 °FPassing clouds.3 mph100%29.83 "Hg5 mi
3:00 AM77 °FPassing clouds.No wind100%29.83 "Hg5 mi
2:30 AM77 °FWarm.2 mph100%29.83 "HgN/A
2:00 AM77 °FPassing clouds.2 mph100%29.83 "Hg5 mi
1:30 AM77 °FPassing clouds.1 mph100%29.83 "Hg5 mi
1:00 AM77 °FPassing clouds.1 mph100%29.83 "Hg5 mi
12:30 AM79 °FPassing clouds.1 mph100%29.86 "Hg5 mi
12:00 AM79 °FPassing clouds.2 mph100%29.86 "Hg5 mi
11:30 PM
Sun, Nov 29
79 °FPassing clouds.3 mph100%29.86 "Hg5 mi
11:00 PM79 °FPassing clouds.5 mph100%29.86 "Hg5 mi
10:30 PM81 °FPassing clouds.3 mph100%29.86 "Hg5 mi
10:00 PM79 °FPassing clouds.2 mph100%29.89 "Hg5 mi
9:30 PM81 °FPassing clouds.3 mph100%29.89 "Hg5 mi
9:00 PM81 °FPassing clouds.5 mph100%29.86 "Hg5 mi
8:30 PM81 °FPassing clouds.2 mph100%29.86 "Hg5 mi
8:00 PM81 °FPassing clouds.3 mph100%29.86 "Hg5 mi
7:30 PM81 °FPassing clouds.5 mph100%29.83 "Hg5 mi
7:00 PM81 °FPassing clouds.5 mph100%29.83 "Hg5 mi
6:30 PM81 °FPassing clouds.3 mph100%29.83 "Hg5 mi
5:30 PM81 °FPassing clouds.3 mph100%29.80 "Hg5 mi
5:00 PM81 °FScattered clouds.5 mph100%29.80 "Hg5 mi
4:30 PM79 °FScattered clouds.6 mph100%29.80 "Hg5 mi
4:00 PM79 °FScattered clouds.5 mph100%29.80 "Hg5 mi
3:30 PM77 °FThunderstorms. Partly sunny.6 mph100%N/A4 mi
3:00 PM77 °FThunderstorms. Partly sunny.15 mph100%N/A2 mi
Weather by CustomWeather, © 2015

See weather overviewHow to use our weather pages